Regional Weather Roundup
Issued by NWS

Home | Current Version | Previous Version | Graphics & Text | Print | Product List | Glossary On
Versions: 1 2 3 4 5 6 7 8 9 10 11 12 13 14 15 16 17 18 19 20 21 22 23 24 25 26 27 28 29 30 31 32 33 34 35 36 37 38 39 40 41 42 43 44 45 46 47 48 49 50
543
ASUS43 KLSX 181157
RWRMO

WEATHER SUMMARY FOR MISSOURI
NATIONAL WEATHER SERVICE SPRINGFIELD MO
700 AM CDT WED OCT 18 2017

NOTE: "FAIR" INDICATES FEW OR NO CLOUDS BELOW 12,000 FEET WITH NO
       SIGNIFICANT WEATHER AND/OR OBSTRUCTIONS TO VISIBILITY.
       CURRENT SKY AND/OR WEATHER CONDITIONS ARE NOT AVAILABLE FOR
       CHILLICOTHE AND FARMINGTON.

MOZ001>031-035>038-043-044-053-054-181300-
...NORTHERN AND WESTERN MISSOURI...

CITY           SKY/WX    TMP DP  RH WIND       PRES   REMARKS
KANSAS CTY INT CLEAR     53  45  74 S13       30.05S
6HR MIN TEMP:  53; 6HR MAX TEMP:  57;

LEE`S SUMMIT   CLEAR     51  44  77 S14       30.08S
6HR MIN TEMP:  51; 6HR MAX TEMP:  56;

ST JOSEPH      CLEAR     52  46  80 S7        30.03S
6HR MIN TEMP:  50; 6HR MAX TEMP:  57;

CHILLICOTHE      N/A     48  45  89 S5        30.08S
6HR MIN TEMP:  47; 6HR MAX TEMP:  52;


$$
MOZ066>068-077>081-088>096-101>105-181300-
...SOUTHWEST MISSOURI...

CITY           SKY/WX    TMP DP  RH WIND       PRES   REMARKS
SPRINGFIELD    CLEAR     47  41  80 SE12      30.14F
6HR MIN TEMP:  47; 6HR MAX TEMP:  50;

JOPLIN         CLEAR     49  42  77 S10       30.12F
6HR MIN TEMP:  48; 6HR MAX TEMP:  51;

BRANSON        CLEAR     43  39  87 SE3       30.19S

$$
MOZ032>034-039>042-045>050-055>058-069>072-181300-
...CENTRAL MISSOURI...

CITY           SKY/WX    TMP DP  RH WIND       PRES   REMARKS
COLUMBIA       NOT AVBL
JEFFERSON CITY CLEAR     44  39  82 SE7       30.16S
6HR MIN TEMP:  44; 6HR MAX TEMP:  51;

ROLLA          CLEAR     51  40  65 S12       30.18S
6HR MIN TEMP:  49; 6HR MAX TEMP:  53;

SEDALIA        CLEAR     50  44  80 S9        30.13S
6HR MIN TEMP:  47; 6HR MAX TEMP:  54;

WARRENSBURG    CLEAR     48  41  76 S9        30.10S

$$
MOZ051-052-059>065-181300-
...EAST CENTRAL MISSOURI...

CITY           SKY/WX    TMP DP  RH WIND       PRES   REMARKS
ST LOUIS INTL  PTCLDY    50  42  74 S7        30.20S
6HR MIN TEMP:  50; 6HR MAX TEMP:  55;


$$
MOZ072>076-082>087-097>100-106>115-181300-
...SOUTH CENTRAL AND SOUTHEAST MISSOURI...

CITY           SKY/WX    TMP DP  RH WIND       PRES   REMARKS
CAPE GIRARDEAU FOG       36  35  96 CALM      30.24R VSB 1/2
6HR MIN TEMP:  36; 6HR MAX TEMP:  43;

POPLAR BLUFF   CLEAR     37  36  96 N3        30.23S
6HR MIN TEMP:  37; 6HR MAX TEMP:  41;

WEST PLAINS    CLEAR     44  37  76 SE5       30.21S
6HR MIN TEMP:  44; 6HR MAX TEMP:  49;


$$



USA.gov is the U.S. government's official web portal to all federal, state and local government web resources and services.